TimeMST,TemperatureF,Dew PointF,Humidity,Sea Level PressureIn,VisibilityMPH,Wind Direction,Wind SpeedMPH,Gust SpeedMPH,PrecipitationIn,Events,Conditions,WindDirDegrees,DateUTC
12:54 AM,25.0,19.9,81,29.95,10.0,Calm,Calm,-,N/A,,Clear,0,2013-02-06 07:54:00
1:54 AM,24.1,19.9,84,29.94,10.0,Variable,3.5,-,N/A,,Clear,0,2013-02-06 08:54:00
2:54 AM,24.1,19.9,84,29.94,10.0,Calm,Calm,-,N/A,,Clear,0,2013-02-06 09:54:00
3:54 AM,26.1,21.9,84,29.91,10.0,NE,3.5,-,N/A,,Clear,50,2013-02-06 10:54:00
4:54 AM,27.0,24.1,89,29.89,10.0,Calm,Calm,-,N/A,,Mostly Cloudy,0,2013-02-06 11:54:00
5:54 AM,27.0,23.0,85,29.94,10.0,Calm,Calm,-,N/A,,Scattered Clouds,0,2013-02-06 12:54:00
6:54 AM,27.0,24.1,89,29.99,10.0,East,4.6,-,N/A,,Scattered Clouds,100,2013-02-06 13:54:00
7:54 AM,28.9,24.1,82,30.00,10.0,ENE,5.8,-,N/A,,Mostly Cloudy,60,2013-02-06 14:54:00
8:54 AM,30.9,27.0,85,30.01,10.0,Calm,Calm,-,N/A,,Mostly Cloudy,0,2013-02-06 15:54:00
10:54 AM,43.0,26.1,51,30.01,10.0,SSW,11.5,-,N/A,,Clear,210,2013-02-06 17:54:00
11:54 AM,46.9,28.0,48,29.98,10.0,West,10.4,19.6,N/A,,Clear,260,2013-02-06 18:54:00
12:54 PM,48.0,25.0,41,29.95,10.0,WSW,8.1,16.1,N/A,,Scattered Clouds,240,2013-02-06 19:54:00
1:54 PM,46.0,26.1,46,29.94,10.0,Variable,5.8,-,N/A,,Mostly Cloudy,0,2013-02-06 20:54:00
2:54 PM,46.9,21.0,36,29.94,10.0,WSW,11.5,-,N/A,,Scattered Clouds,250,2013-02-06 21:54:00
3:54 PM,48.9,19.9,32,29.92,10.0,WSW,13.8,-,N/A,,Overcast,240,2013-02-06 22:54:00
4:54 PM,48.9,19.0,31,29.95,10.0,West,5.8,-,N/A,,Partly Cloudy,270,2013-02-06 23:54:00
5:54 PM,44.1,21.0,40,29.99,10.0,NW,3.5,-,N/A,,Clear,320,2013-02-07 00:54:00
6:54 PM,33.1,23.0,66,30.06,10.0,Calm,Calm,-,N/A,,Mostly Cloudy,0,2013-02-07 01:54:00
7:54 PM,28.0,21.9,78,30.08,10.0,Calm,Calm,-,N/A,,Clear,0,2013-02-07 02:54:00
8:54 PM,26.1,21.0,81,30.11,10.0,NE,4.6,-,N/A,,Clear,50,2013-02-07 03:54:00
9:54 PM,25.0,19.9,81,30.08,10.0,Calm,Calm,-,N/A,,Clear,0,2013-02-07 04:54:00
10:54 PM,24.1,19.9,84,30.08,10.0,NE,4.6,-,N/A,,Clear,50,2013-02-07 05:54:00
11:54 PM,23.0,19.0,85,30.09,10.0,Calm,Calm,-,N/A,,Clear,0,2013-02-07 06:54:00